User: anonymous   Login
Location: Caltech
(34.1382°N, 118.1253°W)
Time: 12:26:00
(UTC-07:00)
Language:

SO-67 - Orbit

View from above orbital plane
View from above orbital plane
View from above satellite
View from above satellite

Ground track
Ground track

The orbit data is extracted from the following two-line orbital elements,

1 35870U 09049F   15116.50076230  .00019944  00000-0  48861-3 0  9999
2 35870 097.1390 133.9704 0003471 070.6791 085.5536 15.40771095312159
Epoch (UTC): 26 April 2015 12:01:05
Eccentricity: 0.0003471
inclination: 97.1390°
perigee height: 441 km
apogee height: 446 km
right ascension of ascending node: 133.9704°
argument of perigee: 70.6791°
revolutions per day: 15.40771095
mean anomaly at epoch: 85.5536°
orbit number at epoch: 31215

The dashed part of the orbit path shows where the satellite is in the earth's shadow,  

DLR